TimeCST,TemperatureF,Dew PointF,Humidity,Sea Level PressureIn,VisibilityMPH,Wind Direction,Wind SpeedMPH,Gust SpeedMPH,PrecipitationIn,Events,Conditions,WindDirDegrees,DateUTC
12:53 AM,12.0,7.0,80,30.37,10.0,SSE,6.9,-,N/A,,Clear,160,2012-01-18 06:53:00
1:53 AM,10.9,6.1,81,30.35,10.0,SSE,4.6,-,N/A,,Clear,160,2012-01-18 07:53:00
2:53 AM,12.0,7.0,80,30.32,10.0,South,4.6,-,N/A,,Clear,170,2012-01-18 08:53:00
3:53 AM,12.9,7.0,77,30.26,10.0,SSE,10.4,-,N/A,,Clear,150,2012-01-18 09:53:00
4:53 AM,16.0,9.0,74,30.26,10.0,South,13.8,-,N/A,,Clear,190,2012-01-18 10:53:00
5:53 AM,16.0,10.0,77,30.23,10.0,South,12.7,-,N/A,,Clear,190,2012-01-18 11:53:00
6:53 AM,17.1,10.0,74,30.22,10.0,South,9.2,-,N/A,,Clear,180,2012-01-18 12:53:00
7:53 AM,18.0,10.9,74,30.22,10.0,South,12.7,-,N/A,,Clear,190,2012-01-18 13:53:00
8:53 AM,19.9,12.0,71,30.20,10.0,South,10.4,19.6,N/A,,Clear,180,2012-01-18 14:53:00
9:53 AM,25.0,12.9,60,30.19,10.0,South,24.2,28.8,N/A,,Clear,190,2012-01-18 15:53:00
10:53 AM,32.0,14.0,48,30.14,10.0,SSW,26.5,33.4,N/A,,Partly Cloudy,200,2012-01-18 16:53:00
11:53 AM,36.0,14.0,41,30.09,10.0,SSW,24.2,32.2,0.00,,Clear,200,2012-01-18 17:53:00
12:53 PM,37.0,15.1,41,30.05,10.0,SW,17.3,-,N/A,,Clear,230,2012-01-18 18:53:00
1:53 PM,37.0,15.1,41,30.02,10.0,SSW,19.6,-,N/A,,Clear,210,2012-01-18 19:53:00
2:53 PM,39.9,16.0,38,29.99,10.0,SSW,15.0,-,N/A,,Clear,210,2012-01-18 20:53:00
3:53 PM,39.0,17.1,41,29.97,10.0,SSW,15.0,-,N/A,,Clear,200,2012-01-18 21:53:00
4:53 PM,37.0,18.0,46,29.95,10.0,South,9.2,-,N/A,,Clear,170,2012-01-18 22:53:00
5:53 PM,34.0,18.0,52,29.94,10.0,South,6.9,-,N/A,,Clear,190,2012-01-18 23:53:00
6:53 PM,34.0,18.0,52,29.93,10.0,South,13.8,-,N/A,,Clear,190,2012-01-19 00:53:00
7:53 PM,32.0,19.0,59,29.91,10.0,South,9.2,-,N/A,,Clear,180,2012-01-19 01:53:00
8:53 PM,30.0,18.0,61,29.91,10.0,South,9.2,-,N/A,,Clear,190,2012-01-19 02:53:00
9:53 PM,30.9,19.0,61,29.88,10.0,South,10.4,-,N/A,,Clear,190,2012-01-19 03:53:00
10:53 PM,34.0,19.9,56,29.86,10.0,South,10.4,-,N/A,,Clear,190,2012-01-19 04:53:00
11:53 PM,34.0,19.9,56,29.85,10.0,SSW,8.1,-,N/A,,Clear,200,2012-01-19 05:53:00